カタログに戻る

CZ-6A DEB

運用中PO
NORAD 54275·DEBRIS·🇨🇳 China

打ち上げ Nov 11, 2022 から Taiyuan Satellite Launch Center

Loading…

次のパス (今後24時間)

TLE

最新Source: Space-Track

元期: Sep 14, 2026, 05:53 UTC

1 54275U 22151S   26257.24514792  .00006330  00000-0  94074-3 0  9999
2 54275  98.8210   6.5692 0073698   2.7593 357.4004 14.73540551203317

AllMySatでCZ-6A DEBをリアルタイム追跡

Download on the App Store